This is the latest recevied weather packets stored in our database for station/object N8XHB. If no packets are shown the sender has not sent any weather packets the latest 10 day(s).
| Time | Temp. | Humidity | Pressure | Rain* | Wind** | Luminosity | Snow |
|---|---|---|---|---|---|---|---|
| 1777842056 | 12.22° C | 59% | 1009.1 hPa | 0 mm | - | 68 W/m² | - |
| 1777841753 | 12.22° C | 59% | 1009.1 hPa | 0 mm | - | 72 W/m² | - |
| 1777841449 | 12.22° C | 59% | 1009 hPa | 0 mm | - | 76 W/m² | - |
| 1777841147 | 12.22° C | 59% | 1009.1 hPa | 0 mm | - | 103 W/m² | - |
| 1777840844 | 11.67° C | 60% | 1009.5 hPa | 0 mm | - | 105 W/m² | - |
| 1777840541 | 11.67° C | 60% | 1009.6 hPa | 0 mm | - | 95 W/m² | - |
| 1777840238 | 11.67° C | 60% | 1009.8 hPa | 0 mm | - | 87 W/m² | - |
| 1777839936 | 11.67° C | 60% | 1009.9 hPa | 0 mm | - | 83 W/m² | - |
| 1777839633 | 11.67° C | 59% | 1009.7 hPa | 0 mm | - | 64 W/m² | - |
| 1777839331 | 11.67° C | 60% | 1010 hPa | 0 mm | - | 43 W/m² | - |
| 1777839028 | 11.67° C | 59% | 1010 hPa | 0 mm | - | 41 W/m² | - |
| 1777838724 | 11.67° C | 59% | 1010.2 hPa | 0 mm | - | 38 W/m² | - |
| 1777838421 | 12.22° C | 58% | 1010.4 hPa | 0 mm | - | 47 W/m² | - |
| 1777838118 | 12.22° C | 56% | 1010.3 hPa | 0 mm | - | 52 W/m² | - |
| 1777837815 | 12.78° C | 55% | 1010.2 hPa | 0 mm | - | 59 W/m² | - |
| 1777837513 | 13.33° C | 53% | 1010.2 hPa | 0 mm | - | 79 W/m² | - |
| 1777837212 | 13.89° C | 51% | 1010.4 hPa | 0 mm | - | 150 W/m² | - |
| 1777836909 | 13.89° C | 51% | 1010.2 hPa | 0 mm | - | 247 W/m² | - |
| 1777836604 | 14.44° C | 49% | 1010.3 hPa | 0 mm | - | 218 W/m² | - |
| 1777836300 | 15° C | 48% | 1010.4 hPa | 0 mm | - | 314 W/m² | - |
| 1777835996 | 15° C | 47% | 1010.3 hPa | 0 mm | - | 339 W/m² | - |
| 1777835694 | 15.56° C | 46% | 1010.5 hPa | 0 mm | - | 838 W/m² | - |
| 1777835390 | 15.56° C | 45% | 1010.6 hPa | 0 mm | - | 624 W/m² | - |
| 1777835087 | 15.56° C | 46% | 1010.4 hPa | 0 mm | - | 664 W/m² | - |
| 1777834784 | 15.56° C | 45% | 1010.4 hPa | 0 mm | - | 1020 W/m² | - |
* Rain latest hour (hover to see other rain measurements)
** Current wind speed in m/s (hover to see current wind gust speed)